FW5965 Weather Reports


time (UTC)temp
F
wind
direction
speed
knots
gust
knots
rain 1hr
in
rain 24hr
in
rain mn
in
humidity
%
barometer
mb
20260906224501 79 155 0.0 0.0 0.00 0.05 0.00 43 1022.2
20260906220002 75 202 0.0 0.0 0.00 0.05 0.00 45 1022.8
20260906214500 75 16 0.0 0.0 0.00 0.05 0.00 46 1023.0
20260906213001 76 30 0.0 0.0 0.00 0.05 0.00 45 1023.1
20260906211501 80 136 0.0 0.0 0.00 0.05 0.00 39 1023.1
20260906205959 82 144 0.0 0.9 0.00 0.05 0.00 36 1023.3
20260906204501 81 78 0.0 0.9 0.00 0.05 0.00 38 1023.3
20260906202959 80 101 0.0 0.0 0.00 0.05 0.00 41 1023.6
20260906201459 80 110 0.0 0.9 0.00 0.05 0.00 39 1023.7
20260906200002 79 138 0.0 1.7 0.00 0.05 0.00 40 1023.9
20260906194458 79 66 0.0 5.2 0.00 0.05 0.00 40 1023.8
20260906193000 80 165 0.0 3.5 0.00 0.05 0.00 38 1023.9
20260906191459 79 216 0.0 0.9 0.00 0.05 0.00 39 1024.1
20260906190003 78 178 0.0 0.9 0.00 0.05 0.00 40 1024.2
20260906184459 78 208 0.0 0.0 0.00 0.05 0.00 43 1024.3
20260906183001 79 199 0.0 0.9 0.00 0.05 0.00 37 1024.6
20260906181501 79 155 0.0 0.9 0.00 0.05 0.00 37 1024.6
20260906180002 79 35 0.0 0.0 0.00 0.05 0.00 40 1024.9
20260906174500 77 158 0.0 0.9 0.00 0.05 0.00 43 1025.3
20260906172959 77 169 0.0 2.6 0.00 0.05 0.00 40 1025.5
20260906171501 76 108 0.0 0.0 0.00 0.05 0.00 43 1025.8
20260906170000 75 103 0.0 0.0 0.00 0.05 0.00 45 1025.8
20260906164501 75 126 0.0 0.0 0.00 0.05 0.00 44 1025.9
20260906161500 73 205 0.0 0.0 0.00 0.05 0.00 41 1025.9
20260906160004 72 237 0.0 0.0 0.00 0.05 0.00 46 1026.0
20260906154459 71 248 0.0 0.0 0.00 0.05 0.00 49 1025.9
20260906153000 68 279 0.0 0.0 0.00 0.05 0.00 48 1025.9
20260906151500 67 280 0.0 0.0 0.00 0.05 0.00 51 1025.8
20260906150004 65 279 0.0 0.0 0.00 0.05 0.00 55 1026.1
20260906144500 63 279 0.0 0.0 0.00 0.05 0.00 59 1026.1
20260906142958 62 279 0.0 0.0 0.00 0.05 0.00 59 1026.1
20260906141500 60 242 0.0 0.0 0.00 0.05 0.00 65 1025.9
20260906140005 58 242 0.0 0.0 0.00 0.05 0.00 66 1025.9
20260906134501 56 242 0.0 0.0 0.00 0.05 0.00 72 1025.9
20260906133000 54 242 0.0 0.0 0.00 0.05 0.00 75 1025.8
20260906131458 53 242 0.0 0.0 0.00 0.05 0.00 75 1025.7
20260906130004 53 248 0.0 0.0 0.00 0.05 0.00 75 1025.6
20260906124458 51 246 0.0 0.0 0.00 0.05 0.00 78 1025.5
20260906123001 50 246 0.0 0.0 0.00 0.05 0.00 79 1025.4
20260906120003 53 246 0.0 0.0 0.00 0.05 0.00 75 1025.5
20260906114500 53 246 0.0 0.0 0.00 0.05 0.00 74 1025.5
20260906113000 52 246 0.0 0.0 0.00 0.05 0.00 76 1025.5
20260906111457 53 246 0.0 0.0 0.00 0.05 0.00 77 1025.3
20260906110003 51 246 0.0 0.0 0.00 0.05 0.00 79 1025.2
20260906104500 52 246 0.0 0.0 0.00 0.05 0.00 78 1025.3
20260906103000 53 246 0.0 0.0 0.00 0.05 0.00 76 1025.3
20260906101500 54 246 0.0 0.0 0.00 0.05 0.00 75 1025.3
20260906100003 53 246 0.0 0.0 0.00 0.05 0.00 76 1025.3
20260906094500 53 246 0.0 0.0 0.00 0.05 0.00 78 1025.6
20260906092958 53 246 0.0 0.0 0.00 0.05 0.00 77 1025.6
20260906091500 52 246 0.0 0.0 0.00 0.05 0.00 80 1025.6
20260906090003 52 246 0.0 0.0 0.00 0.05 0.00 81 1025.6
20260906084500 52 246 0.0 0.0 0.00 0.05 0.00 81 1025.4
20260906083000 53 246 0.0 0.0 0.00 0.05 0.00 81 1025.4
20260906081500 53 246 0.0 0.0 0.00 0.05 0.00 82 1025.6
20260906080002 53 246 0.0 0.0 0.00 0.05 0.00 82 1025.6
20260906074458 53 246 0.0 0.0 0.00 0.05 0.00 83 1025.6
20260906071500 53 246 0.0 0.0 0.00 0.05 0.00 83 1025.8
20260906070002 54 246 0.0 0.0 0.00 0.05 0.00 84 1025.9
20260906064501 54 246 0.0 0.0 0.00 0.05 0.00 85 1025.8
20260906063000 54 246 0.0 0.0 0.00 0.05 0.00 85 1026.0
20260906061501 54 246 0.0 0.0 0.00 0.05 0.00 86 1026.2
20260906060005 55 246 0.0 0.0 0.00 0.05 0.00 86 1026.1
20260906054502 56 246 0.0 0.0 0.00 0.05 0.05 86 1026.3
20260906053002 56 246 0.0 0.0 0.03 0.05 0.05 86 1026.5
20260906051501 57 246 0.0 0.0 0.05 0.05 0.05 85 1026.8
20260906050005 58 246 0.0 2.6 0.05 0.05 0.05 82 1026.6
20260906044502 59 238 0.0 1.7 0.05 0.05 0.05 80 1026.7
20260906043002 64 163 0.0 6.1 0.01 0.01 0.01 63 1026.6
20260906041500 67 30 0.0 8.7 0.00 0.00 0.00 53 1026.0
20260906040004 66 212 0.0 4.3 0.00 0.00 0.00 48 1026.0
20260906034500 67 277 0.0 0.0 0.00 0.00 0.00 47 1025.9
20260906033001 67 355 0.0 0.0 0.00 0.00 0.00 46 1025.5
20260906030004 66 351 0.0 0.0 0.00 0.00 0.00 46 1025.3
20260906024500 67 351 0.0 0.0 0.00 0.00 0.00 45 1025.1
20260906023000 67 291 0.0 0.0 0.00 0.00 0.00 44 1024.8
20260906021500 69 286 0.0 0.0 0.00 0.00 0.00 41 1024.6
20260906020003 70 286 0.0 0.0 0.00 0.00 0.00 39 1024.6
20260906014501 71 9 0.0 0.0 0.00 0.00 0.00 38 1024.5
20260906012959 72 350 0.0 0.9 0.00 0.00 0.00 37 1024.4
20260906011501 73 273 0.0 0.0 0.00 0.00 0.00 36 1024.4
20260906010006 73 20 0.0 0.0 0.00 0.00 0.00 34 1024.4
20260906004500 74 20 0.0 0.0 0.00 0.00 0.00 35 1024.3
20260906001501 76 20 0.0 0.0 0.00 0.00 0.00 33 1024.2
20260906000007 79 20 0.0 0.0 0.00 0.00 0.00 30 1024.1
20260905234501 80 13 0.0 0.0 0.00 0.00 0.00 31 1024.0
20260905233001 80 5 0.0 0.0 0.00 0.00 0.00 29 1024.1
20260905225959 81 87 0.0 0.0 0.00 0.00 0.00 33 1023.9